Regional Weather Roundup
Issued by NWS Upton, NY

Current Version | Previous Version | Text Only | Print | Product List | Glossary Off
Versions: 1 2 3 4 5 6 7 8 9 10 11 12 13 14 15 16 17 18 19 20 21 22 23 24 25 26 27 28 29 30 31 32 33 34 35 36 37 38 39 40 41 42 43 44 45 46 47 48 49 50
000 ASUS41 KOKX 152209 RWROKX REGIONAL WEATHER ROUNDUP NATIONAL WEATHER SERVICE NEW YORK NY 500 PM EST FRI DEC 15 2017 NOTE: "FAIR" INDICATES FEW OR NO CLOUDS BELOW 12,000 FEET WITH NO SIGNIFICANT WEATHER AND/OR OBSTRUCTIONS TO VISIBILITY. NYZ071-072-176-178-NJZ106-104-152300- NEW YORK CITY METRO AREA CITY SKY/WX TMP DP RH WIND PRES REMARKS Central Park SNOW 24 21 88 W3 29.94R VSB 1/2 Bronx Bot Gard N/A 25 23 93 NW3 29.94R Bronx Lehman C N/A 25 23 93 NW3 N/A LaGuardia APRT SNOW 25 22 88 VRB5 29.93R VSB 1/2 WCI 19 Queens College N/A 27 25 93 NW3 N/A Kennedy INTL LGT SNOW 25 23 92 W7 29.95R VSB 1 WCI 17 Breezy Point N/A N/A N/A N/A NW6 N/A Brooklyn Coll N/A 27 25 93 W6 N/A WCI 20 Staten Island N/A 25 23 93 SW5 N/A WCI 19 Newark/Liberty LGT SNOW 23 20 88 W8 29.94R VSB 3/4 WCI 14 Teterboro LGT SNOW 23 20 88 CALM 29.93R VSB 1 $$ NYZ177-179-078>081-152300- LONG ISLAND NEW YORK CITY SKY/WX TMP DP RH WIND PRES REMARKS Jones Beach N/A N/A N/A N/A NW7 N/A Wantagh N/A 27 25 93 W5 N/A WCI 21 Matinecock PT N/A N/A N/A N/A W5 N/A Farmingdale LGT SNOW 25 23 92 W5 29.93R VSB 3/4 WCI 19 MacArthur/ISP LGT SNOW 27 25 92 CALM 29.90R VSB 3/4 Shirley LGT SNOW 27 25 92 CALM 29.91R FOG Mt Sinai Harb N/A N/A N/A N/A S2 N/A Westhampton LGT SNOW 27 24 89 NW3 29.91S FOG East Hampton LGT SNOW 27 25 93 N3 29.88F Southold N/A 28 27 93 NE3 N/A Montauk N/A 31 26 82 NE6 29.88F WCI 25 $$ NYZ052-065-067-152300- HUDSON VALLEY CITY SKY/WX TMP DP RH WIND PRES REMARKS White Plains LGT SNOW 23 20 88 W3 29.89R VSB 1 Larchmont Harb N/A N/A N/A N/A W8 N/A Croton On Huds N/A N/A N/A N/A SW5 N/A Somers N/A 23 19 86 W1 N/A Brewster N/A 23 19 86 NW2 N/A Newburgh LGT SNOW 19 18 93 CALM 29.89F Montgomery LGT SNOW 21 18 88 CALM 29.88F FOG Otisville N/A 21 18 86 W1 N/A Warwick N/A 21 19 93 CALM N/A Suffern N/A 21 19 93 SW1 N/A Poughkeepsie FLURRIES 22 14 71 CALM 29.90F Albany CLOUDY 22 9 57 S5 29.89F WCI 16 $$ NJZ001-105-106-008-010-013-015-019>022-104-152300- NEW JERSEY CITY SKY/WX TMP DP RH WIND PRES REMARKS Newark/Liberty LGT SNOW 23 20 88 W8 29.94R VSB 3/4 WCI 14 Teterboro LGT SNOW 23 20 88 CALM 29.93R VSB 1 Caldwell LGT SNOW 22 20 92 CALM 29.93S FOG Somerville LGT SNOW 22 21 96 CALM 29.92S VSB 1 Linden LGT SNOW 24 21 89 CALM 29.94S VSB 1 Perth Amboy N/A N/A N/A N/A W6 N/A Sussex LGT SNOW 21 18 88 CALM 29.89S FOG Andover NOT AVBL Trenton LGT SNOW 23 20 88 CALM 29.92F VSB 3/4 Millville LGT SNOW 25 23 92 N9 29.93S VSB 1 WCI 15 Atlantic City LGT SNOW 25 23 92 N7 29.92S FOG WCI 17 Wrightstown LGT SNOW 23 21 92 N3 29.91F FOG Toms River LGT SNOW 23 21 93 N3 29.94F FOG Belmar LGT SNOW 22 20 92 NW7 29.94S FOG WCI 13 $$ PAZ047>061-062-071-152300- EASTERN PENNSYLVANIA CITY SKY/WX TMP DP RH WIND PRES REMARKS Philadelphia LGT SNOW 25 22 88 VRB3 29.95F VSB 3/4 Allentown LGT SNOW 22 18 85 CALM 29.91S FOG Scranton LGT SNOW 20 17 88 CALM 29.84S FOG $$ CTZ002-004>006-009-010-012-RIZ004-006-007-MAZ004-011-015-152300- SOUTHERN NEW ENGLAND IN CT CITY SKY/WX TMP DP RH WIND PRES REMARKS Bradley INTL CLOUDY 23 12 62 N3 29.89F Hartford CLOUDY 25 13 60 CALM 29.90F Danbury LGT SNOW 24 18 77 W3 29.89F Wtrbury/Oxford LGT SNOW 23 16 74 CALM 29.85F FOG Norwalk Harbor N/A N/A N/A N/A NW6 N/A Bridgeport LGT SNOW 26 21 81 N6 29.91F VSB 1 WCI 19 Meriden CLOUDY 24 14 65 NE3 29.89F New Haven LGT SNOW 25 20 81 N6 29.90F WCI 18 Chester LGT SNOW 23 18 80 CALM 29.87F Groton LGT SNOW 25 18 74 N6 29.89F WCI 18 Wilimantic CLOUDY 24 13 62 CALM 29.89F IN RI CITY SKY/WX TMP DP RH WIND PRES REMARKS Providence CLOUDY 25 15 66 NE5 29.91F WCI 19 Block Island MIX PCPN 29 24 82 NE5 29.88F WCI 24 Westerly CLOUDY 27 17 66 N6 29.90F WCI 20 IN MA CITY SKY/WX TMP DP RH WIND PRES REMARKS Boston CLOUDY 26 13 57 S5 29.92F WCI 20 Worcester CLOUDY 20 9 62 SE5 29.84F WCI 13 Westfield CLOUDY 22 12 65 CALM 29.88F Provincetown CLOUDY 27 18 69 CALM 29.93F Nantucket CLOUDY 30 25 81 NE7 29.89F WCI 23 $$ ANZ330-335-338-340-345-350-353-355-152300- COASTAL MARINE OBSERVATIONS STATION/POSITION TIME SKY/WX TEMP WIND PRES VSBY WAVE AIR SEA DIR/SP/G HT/PER (UTC) (F) (DEG/KT/KT) (MB) (MI) (FT/S) NY HARB ENTRANCE 2050 29 49 310/ 6/ 8 1012.6 1/ 9 20 S FIRE ISLAND 2050 31 51 340/ 4/ 6 1012.5 2/ 8 GREAT SOUTH BAY NOT AVBL HUDSON CANYON 2050 40 56 90/ 6/ 10 1011.4 3/ 8 KINGS POINT 2130 25 43 20/ 6/ 8 1014.1 EXECUTION ROCKS 2115 27 310/ 6/ 8 N/A WESTERN LI SOUND NOT AVBL CENTRAL LI SOUND NOT AVBL ROBBINS REEF 2142 24 260/ 7/ 9 1014.4 $$ >>>>>>>>>>>>>>>>>>>>>>>>>>>> KEY <<<<<<<<<<<<<<<<<<<<<<<<<<< > < > SKY/WX - Sky Condition/Present Weather < > TMP - Temperature in Fahrenheit < > DP - Dew Point in Fahrenheit < > RH - Relative Humidity in Percent < > WIND - Direction (from) and Speed in MPH < > PRES - Mean Sea Level Pressure (inches of Hg) < > WCI - Wind Chill Index < > VSB - VISIBILITY IN MILES < > HX - HEAT INDEX < > TC - TEMPERATURE IN CELSIUS < > VRB - VARIABLE WIND DIRECTION < > < >>>>>>>>>>>>>>>>>>>>>>>>>>>> KEY <<<<<<<<<<<<<<<<<<<<<<<<<<<

USA.gov is the U.S. government's official web portal to all federal, state and local government web resources and services.